| time (UTC) | temp C | wind direction | speed KPH | gust KPH | rain 1hr cm | rain 24hr cm | rain mn cm | humidity % | barometer mb |
| 20260903224755 | 32 | 210 | 0.0 | 0.0 | 0.00 | 0.00 | 0.00 | 74 | 1016.0 |
| 20260903224250 | 33 | 212 | 0.0 | 0.0 | 0.00 | 0.00 | 0.00 | 71 | 1016.0 |
| 20260903223746 | 34 | 214 | 0.0 | 0.0 | 0.00 | 0.00 | 0.00 | 69 | 1015.9 |
| 20260903223244 | 34 | 219 | 0.0 | 0.0 | 0.00 | 0.00 | 0.00 | 65 | 1016.1 |
| 20260903222739 | 33 | 219 | 0.0 | 0.0 | 0.00 | 0.00 | 0.00 | 68 | 1016.1 |
| 20260903222238 | 32 | 218 | 0.0 | 0.0 | 0.00 | 0.00 | 0.00 | 69 | 1016.2 |
| 20260903221733 | 32 | 212 | 0.0 | 0.0 | 0.00 | 0.00 | 0.00 | 67 | 1016.0 |
| 20260903221232 | 33 | 212 | 0.0 | 0.0 | 0.00 | 0.00 | 0.00 | 66 | 1016.2 |
| 20260903220730 | 33 | 214 | 0.0 | 0.0 | 0.00 | 0.00 | 0.00 | 62 | 1016.1 |
| 20260903220226 | 33 | 218 | 0.0 | 0.0 | 0.00 | 0.00 | 0.00 | 60 | 1016.0 |
| 20260903215724 | 34 | 218 | 0.0 | 0.0 | 0.00 | 0.00 | 0.00 | 59 | 1016.2 |
| 20260903215220 | 34 | 214 | 0.0 | 0.0 | 0.00 | 0.00 | 0.00 | 57 | 1016.1 |
| 20260903214718 | 35 | 218 | 0.0 | 0.0 | 0.00 | 0.00 | 0.00 | 56 | 1016.0 |
| 20260903214215 | 35 | 218 | 0.0 | 0.0 | 0.00 | 0.00 | 0.00 | 54 | 1016.0 |
| 20260903213709 | 36 | 219 | 0.0 | 0.0 | 0.00 | 0.00 | 0.00 | 54 | 1016.0 |
| 20260903213205 | 36 | 232 | 3.2 | 3.2 | 0.00 | 0.00 | 0.00 | 51 | 1016.1 |
| 20260903212700 | 36 | 224 | 3.2 | 4.8 | 0.00 | 0.00 | 0.00 | 53 | 1016.2 |
| 20260903212156 | 36 | 232 | 3.2 | 6.4 | 0.00 | 0.00 | 0.00 | 53 | 1016.4 |
| 20260903211650 | 36 | 219 | 0.0 | 4.8 | 0.00 | 0.00 | 0.00 | 53 | 1016.3 |
| 20260903211147 | 36 | 217 | 6.4 | 6.4 | 0.00 | 0.00 | 0.00 | 52 | 1016.3 |
| 20260903210642 | 36 | 217 | 1.6 | 3.2 | 0.00 | 0.00 | 0.00 | 52 | 1016.2 |
| 20260903210137 | 36 | 216 | 1.6 | 3.2 | 0.00 | 0.00 | 0.00 | 50 | 1016.3 |
| 20260903205637 | 35 | 217 | 3.2 | 4.8 | 0.00 | 0.00 | 0.00 | 53 | 1016.2 |
| 20260903205136 | 35 | 219 | 6.4 | 9.7 | 0.00 | 0.00 | 0.00 | 53 | 1016.2 |
| 20260903204632 | 36 | 216 | 4.8 | 6.4 | 0.00 | 0.00 | 0.00 | 52 | 1016.5 |
| 20260903204128 | 35 | 217 | 4.8 | 4.8 | 0.00 | 0.00 | 0.00 | 53 | 1016.4 |
| 20260903203623 | 36 | 224 | 3.2 | 4.8 | 0.00 | 0.00 | 0.00 | 55 | 1016.6 |
| 20260903203118 | 35 | 222 | 0.0 | 0.0 | 0.00 | 0.00 | 0.00 | 56 | 1016.6 |
| 20260903202613 | 35 | 231 | 3.2 | 4.8 | 0.00 | 0.00 | 0.00 | 55 | 1016.7 |
| 20260903202109 | 34 | 230 | 4.8 | 6.4 | 0.00 | 0.00 | 0.00 | 55 | 1016.7 |
| 20260903201603 | 33 | 217 | 3.2 | 6.4 | 0.00 | 0.00 | 0.00 | 59 | 1016.8 |
| 20260903201102 | 33 | 229 | 4.8 | 6.4 | 0.00 | 0.00 | 0.00 | 60 | 1016.9 |
| 20260903200557 | 33 | 223 | 1.6 | 3.2 | 0.00 | 0.00 | 0.00 | 63 | 1016.9 |
| 20260903200052 | 34 | 217 | 3.2 | 4.8 | 0.00 | 0.00 | 0.00 | 61 | 1017.1 |
| 20260903195548 | 33 | 212 | 0.0 | 0.0 | 0.00 | 0.00 | 0.00 | 65 | 1017.1 |
| 20260903195043 | 31 | 217 | 0.0 | 0.0 | 0.00 | 0.00 | 0.00 | 72 | 1017.1 |
| 20260903194534 | 30 | 211 | 0.0 | 0.0 | 0.00 | 0.00 | 0.00 | 73 | 1017.3 |
| 20260903194028 | 31 | 210 | 0.0 | 0.0 | 0.00 | 0.00 | 0.00 | 69 | 1017.5 |
| 20260903193525 | 31 | 210 | 0.0 | 0.0 | 0.00 | 0.00 | 0.00 | 69 | 1017.5 |
| 20260903193020 | 33 | 212 | 0.0 | 0.0 | 0.00 | 0.00 | 0.00 | 62 | 1017.4 |
| 20260903192516 | 34 | 209 | 0.0 | 0.0 | 0.00 | 0.00 | 0.00 | 59 | 1017.2 |
| 20260903192010 | 34 | 209 | 0.0 | 0.0 | 0.00 | 0.00 | 0.00 | 56 | 1017.4 |
| 20260903191506 | 35 | 209 | 0.0 | 1.6 | 0.00 | 0.00 | 0.00 | 54 | 1017.3 |
| 20260903190819 | 34 | 215 | 0.0 | 0.0 | 0.00 | 0.00 | 0.00 | 55 | 1017.4 |
| 20260903190315 | 34 | 215 | 0.0 | 0.0 | 0.00 | 0.00 | 0.00 | 55 | 1017.4 |
| 20260903185814 | 35 | 209 | 0.0 | 3.2 | 0.00 | 0.00 | 0.00 | 56 | 1017.5 |
| 20260903185309 | 35 | 214 | 1.6 | 6.4 | 0.00 | 0.00 | 0.00 | 54 | 1017.4 |
| 20260903184805 | 35 | 214 | 0.0 | 0.0 | 0.00 | 0.00 | 0.00 | 54 | 1017.4 |
| 20260903184302 | 35 | 220 | 0.0 | 3.2 | 0.00 | 0.00 | 0.00 | 53 | 1017.6 |
| 20260903183756 | 35 | 223 | 3.2 | 3.2 | 0.00 | 0.00 | 0.00 | 52 | 1017.7 |
| 20260903183250 | 35 | 214 | 1.6 | 4.8 | 0.00 | 0.00 | 0.00 | 54 | 1017.6 |
| 20260903182749 | 35 | 223 | 4.8 | 6.4 | 0.00 | 0.00 | 0.00 | 53 | 1017.5 |
| 20260903182244 | 35 | 221 | 3.2 | 3.2 | 0.00 | 0.00 | 0.00 | 54 | 1017.7 |
| 20260903181743 | 35 | 218 | 4.8 | 4.8 | 0.00 | 0.00 | 0.00 | 55 | 1017.9 |
| 20260903181238 | 35 | 218 | 1.6 | 4.8 | 0.00 | 0.00 | 0.00 | 55 | 1017.9 |
| 20260903180734 | 35 | 214 | 0.0 | 3.2 | 0.00 | 0.00 | 0.00 | 54 | 1017.8 |
| 20260903180232 | 35 | 214 | 1.6 | 1.6 | 0.00 | 0.00 | 0.00 | 53 | 1018.0 |
| 20260903175727 | 35 | 209 | 1.6 | 3.2 | 0.00 | 0.00 | 0.00 | 57 | 1018.0 |
| 20260903175226 | 35 | 215 | 1.6 | 4.8 | 0.00 | 0.00 | 0.00 | 57 | 1018.1 |
| 20260903174725 | 35 | 219 | 1.6 | 3.2 | 0.00 | 0.00 | 0.00 | 56 | 1018.1 |
| 20260903174221 | 34 | 220 | 0.0 | 4.8 | 0.00 | 0.00 | 0.00 | 57 | 1018.2 |
| 20260903173716 | 34 | 211 | 1.6 | 9.7 | 0.00 | 0.00 | 0.00 | 59 | 1018.2 |
| 20260903173211 | 34 | 214 | 0.0 | 0.0 | 0.00 | 0.00 | 0.00 | 58 | 1018.3 |
| 20260903172706 | 35 | 218 | 0.0 | 9.7 | 0.00 | 0.00 | 0.00 | 57 | 1018.3 |
| 20260903172201 | 34 | 209 | 1.6 | 6.4 | 0.00 | 0.00 | 0.00 | 59 | 1018.7 |
| 20260903171656 | 34 | 212 | 0.0 | 0.0 | 0.00 | 0.00 | 0.00 | 60 | 1018.7 |
| 20260903171152 | 33 | 212 | 0.0 | 0.0 | 0.00 | 0.00 | 0.00 | 62 | 1018.7 |
| 20260903170651 | 33 | 218 | 1.6 | 4.8 | 0.00 | 0.00 | 0.00 | 62 | 1018.7 |
| 20260903170147 | 34 | 211 | 0.0 | 0.0 | 0.00 | 0.00 | 0.00 | 62 | 1018.8 |
| 20260903165644 | 33 | 216 | 4.8 | 6.4 | 0.00 | 0.00 | 0.00 | 64 | 1018.9 |
| 20260903165139 | 33 | 212 | 0.0 | 3.2 | 0.00 | 0.00 | 0.00 | 63 | 1018.6 |
| 20260903164634 | 33 | 212 | 0.0 | 1.6 | 0.00 | 0.00 | 0.00 | 62 | 1019.2 |
| 20260903164130 | 33 | 213 | 0.0 | 4.8 | 0.00 | 0.00 | 0.00 | 64 | 1019.0 |
| 20260903163624 | 32 | 210 | 0.0 | 6.4 | 0.00 | 0.00 | 0.00 | 65 | 1019.1 |
| 20260903163121 | 33 | 210 | 0.0 | 3.2 | 0.00 | 0.00 | 0.00 | 64 | 1019.0 |
| 20260903162617 | 33 | 220 | 0.0 | 3.2 | 0.00 | 0.00 | 0.00 | 64 | 1019.4 |
| 20260903162113 | 33 | 215 | 0.0 | 1.6 | 0.00 | 0.00 | 0.00 | 63 | 1019.3 |
| 20260903161613 | 33 | 214 | 1.6 | 3.2 | 0.00 | 0.00 | 0.00 | 64 | 1019.3 |
| 20260903161109 | 33 | 217 | 1.6 | 3.2 | 0.00 | 0.00 | 0.00 | 64 | 1019.4 |
| 20260903160603 | 33 | 215 | 0.0 | 0.0 | 0.00 | 0.00 | 0.00 | 66 | 1019.3 |
| 20260903160057 | 32 | 213 | 1.6 | 3.2 | 0.00 | 0.00 | 0.00 | 65 | 1019.3 |
| 20260903155556 | 32 | 215 | 0.0 | 0.0 | 0.00 | 0.00 | 0.00 | 66 | 1019.3 |
| 20260903155051 | 33 | 204 | 1.6 | 3.2 | 0.00 | 0.00 | 0.00 | 64 | 1019.3 |
| 20260903154548 | 32 | 217 | 0.0 | 1.6 | 0.00 | 0.00 | 0.00 | 69 | 1019.3 |
| 20260903154044 | 32 | 215 | 0.0 | 3.2 | 0.00 | 0.00 | 0.00 | 66 | 1019.3 |
| 20260903153539 | 32 | 213 | 0.0 | 1.6 | 0.00 | 0.00 | 0.00 | 68 | 1019.4 |
| 20260903153035 | 31 | 215 | 0.0 | 1.6 | 0.00 | 0.00 | 0.00 | 67 | 1019.0 |
| 20260903152530 | 31 | 210 | 0.0 | 1.6 | 0.00 | 0.00 | 0.00 | 70 | 1019.3 |
| 20260903152026 | 31 | 215 | 0.0 | 3.2 | 0.00 | 0.00 | 0.00 | 70 | 1019.0 |
| 20260903151525 | 31 | 213 | 1.6 | 1.6 | 0.00 | 0.00 | 0.00 | 71 | 1019.5 |
| 20260903151021 | 31 | 205 | 0.0 | 1.6 | 0.00 | 0.00 | 0.00 | 69 | 1019.3 |
| 20260903150515 | 32 | 204 | 0.0 | 0.0 | 0.00 | 0.00 | 0.00 | 70 | 1019.2 |
| 20260903150010 | 31 | 204 | 0.0 | 0.0 | 0.00 | 0.00 | 0.00 | 70 | 1019.3 |
| 20260903145505 | 31 | 204 | 0.0 | 0.0 | 0.00 | 0.00 | 0.00 | 73 | 1019.3 |
| 20260903145000 | 30 | 213 | 0.0 | 0.0 | 0.00 | 0.00 | 0.00 | 72 | 1019.2 |
| 20260903144459 | 30 | 215 | 0.0 | 0.0 | 0.00 | 0.00 | 0.00 | 72 | 1019.2 |
| 20260903143955 | 30 | 216 | 0.0 | 0.0 | 0.00 | 0.00 | 0.00 | 73 | 1019.4 |
| 20260903143451 | 30 | 205 | 0.0 | 0.0 | 0.00 | 0.00 | 0.00 | 75 | 1019.4 |
| 20260903142947 | 30 | 205 | 0.0 | 4.8 | 0.00 | 0.00 | 0.00 | 75 | 1019.3 |
| 20260903142442 | 30 | 205 | 0.0 | 1.6 | 0.00 | 0.00 | 0.00 | 77 | 1019.5 |
| 20260903141938 | 30 | 213 | 0.0 | 0.0 | 0.00 | 0.00 | 0.00 | 76 | 1019.4 |
| 20260903141434 | 30 | 213 | 0.0 | 0.0 | 0.00 | 0.00 | 0.00 | 77 | 1019.5 |
| 20260903140929 | 29 | 210 | 0.0 | 0.0 | 0.00 | 0.00 | 0.00 | 79 | 1019.5 |
| 20260903140425 | 29 | 215 | 0.0 | 0.0 | 0.00 | 0.00 | 0.00 | 78 | 1019.3 |
| 20260903135925 | 28 | 213 | 0.0 | 0.0 | 0.00 | 0.00 | 0.00 | 79 | 1019.5 |
| 20260903135420 | 28 | 213 | 0.0 | 0.0 | 0.00 | 0.00 | 0.00 | 80 | 1019.5 |
| 20260903134915 | 28 | 213 | 0.0 | 0.0 | 0.00 | 0.00 | 0.00 | 81 | 1019.7 |
| 20260903134414 | 28 | 206 | 0.0 | 0.0 | 0.00 | 0.00 | 0.00 | 83 | 1019.9 |
| 20260903133912 | 27 | 206 | 0.0 | 0.0 | 0.00 | 0.00 | 0.00 | 84 | 1019.7 |
| 20260903133408 | 27 | 215 | 0.0 | 0.0 | 0.00 | 0.00 | 0.00 | 84 | 1019.6 |
| 20260903132903 | 27 | 216 | 0.0 | 0.0 | 0.00 | 0.00 | 0.00 | 84 | 1019.5 |
| 20260903132359 | 26 | 215 | 0.0 | 1.6 | 0.00 | 0.00 | 0.00 | 86 | 1019.8 |
| 20260903131858 | 26 | 216 | 0.0 | 0.0 | 0.00 | 0.00 | 0.00 | 86 | 1019.8 |
| 20260903131353 | 26 | 207 | 0.0 | 1.6 | 0.00 | 0.00 | 0.00 | 86 | 1019.6 |
| 20260903130852 | 26 | 215 | 0.0 | 0.0 | 0.00 | 0.00 | 0.00 | 87 | 1019.6 |
| 20260903130347 | 26 | 215 | 0.0 | 1.6 | 0.00 | 0.00 | 0.00 | 87 | 1019.5 |
| 20260903125846 | 27 | 215 | 0.0 | 3.2 | 0.00 | 0.00 | 0.00 | 85 | 1019.7 |
| 20260903125341 | 27 | 216 | 0.0 | 0.0 | 0.00 | 0.00 | 0.00 | 85 | 1019.7 |
| 20260903124840 | 27 | 215 | 0.0 | 0.0 | 0.00 | 0.00 | 0.00 | 85 | 1019.8 |
| 20260903124336 | 27 | 213 | 0.0 | 0.0 | 0.00 | 0.00 | 0.00 | 86 | 1019.6 |
| 20260903123835 | 26 | 215 | 0.0 | 0.0 | 0.00 | 0.00 | 0.00 | 89 | 1019.7 |
| 20260903123329 | 26 | 216 | 0.0 | 0.0 | 0.00 | 0.00 | 0.00 | 89 | 1019.7 |
| 20260903122828 | 25 | 215 | 0.0 | 0.0 | 0.00 | 0.00 | 0.00 | 92 | 1019.8 |
| 20260903122323 | 24 | 207 | 0.0 | 0.0 | 0.00 | 0.00 | 0.00 | 97 | 1019.8 |
| 20260903121822 | 23 | 207 | 0.0 | 0.0 | 0.00 | 0.00 | 0.00 | 98 | 1019.6 |
| 20260903121317 | 23 | 207 | 0.0 | 0.0 | 0.00 | 0.00 | 0.00 | 99 | 1019.8 |
| 20260903120813 | 23 | 207 | 0.0 | 0.0 | 0.00 | 0.00 | 0.00 | 99 | 1019.7 |
| 20260903120306 | 23 | 207 | 0.0 | 0.0 | 0.00 | 0.00 | 0.00 | 99 | 1019.7 |
| 20260903115804 | 23 | 216 | 0.0 | 0.0 | 0.00 | 0.00 | 0.00 | 99 | 1019.6 |
| 20260903115300 | 22 | 216 | 0.0 | 0.0 | 0.00 | 0.00 | 0.00 | 99 | 1019.3 |
| 20260903114800 | 22 | 216 | 0.0 | 0.0 | 0.00 | 0.00 | 0.00 | 99 | 1019.5 |
| 20260903114255 | 22 | 208 | 0.0 | 0.0 | 0.00 | 0.00 | 0.00 | 99 | 1019.4 |
| 20260903113750 | 22 | 216 | 0.0 | 0.0 | 0.00 | 0.00 | 0.00 | 99 | 1019.6 |
| 20260903113246 | 22 | 216 | 0.0 | 0.0 | 0.00 | 0.00 | 0.00 | 99 | 1019.6 |
| 20260903112742 | 22 | 216 | 0.0 | 0.0 | 0.00 | 0.00 | 0.00 | 99 | 1019.3 |
| 20260903112238 | 22 | 216 | 0.0 | 0.0 | 0.00 | 0.00 | 0.00 | 99 | 1019.2 |
| 20260903111736 | 22 | 216 | 0.0 | 0.0 | 0.00 | 0.00 | 0.00 | 99 | 1019.1 |
| 20260903111232 | 22 | 206 | 0.0 | 0.0 | 0.00 | 0.00 | 0.00 | 99 | 1018.9 |
| 20260903110727 | 22 | 216 | 0.0 | 0.0 | 0.00 | 0.00 | 0.00 | 99 | 1019.0 |
| 20260903110223 | 22 | 216 | 0.0 | 0.0 | 0.00 | 0.00 | 0.00 | 99 | 1019.0 |
| 20260903105723 | 22 | 216 | 0.0 | 0.0 | 0.00 | 0.00 | 0.00 | 99 | 1018.9 |
| 20260903105218 | 22 | 216 | 0.0 | 0.0 | 0.00 | 0.00 | 0.00 | 99 | 1018.9 |
| 20260903104718 | 22 | 206 | 0.0 | 0.0 | 0.00 | 0.00 | 0.00 | 99 | 1018.9 |
| 20260903104213 | 22 | 216 | 0.0 | 0.0 | 0.00 | 0.00 | 0.00 | 99 | 1018.9 |
| 20260903103708 | 22 | 216 | 0.0 | 0.0 | 0.00 | 0.00 | 0.00 | 99 | 1018.7 |
| 20260903103204 | 22 | 216 | 0.0 | 0.0 | 0.00 | 0.00 | 0.00 | 99 | 1018.7 |
| 20260903102700 | 22 | 216 | 0.0 | 0.0 | 0.00 | 0.00 | 0.00 | 99 | 1019.0 |
| 20260903102154 | 22 | 216 | 0.0 | 0.0 | 0.00 | 0.00 | 0.00 | 99 | 1018.8 |
| 20260903101653 | 22 | 216 | 0.0 | 0.0 | 0.00 | 0.00 | 0.00 | 99 | 1019.0 |
| 20260903101149 | 22 | 216 | 0.0 | 0.0 | 0.00 | 0.00 | 0.00 | 99 | 1018.7 |
| 20260903100644 | 22 | 216 | 0.0 | 0.0 | 0.00 | 0.00 | 0.00 | 99 | 1018.6 |
| 20260903100143 | 22 | 216 | 0.0 | 0.0 | 0.00 | 0.00 | 0.00 | 99 | 1018.6 |
| 20260903095641 | 22 | 216 | 0.0 | 0.0 | 0.00 | 0.00 | 0.00 | 99 | 1018.6 |
| 20260903095141 | 22 | 208 | 0.0 | 0.0 | 0.00 | 0.00 | 0.00 | 99 | 1018.6 |
| 20260903094636 | 22 | 216 | 0.0 | 0.0 | 0.00 | 0.00 | 0.00 | 99 | 1018.7 |
| 20260903094131 | 22 | 216 | 0.0 | 0.0 | 0.00 | 0.00 | 0.00 | 99 | 1018.5 |
| 20260903093626 | 22 | 208 | 0.0 | 0.0 | 0.00 | 0.00 | 0.00 | 99 | 1018.7 |
| 20260903093121 | 22 | 208 | 0.0 | 0.0 | 0.00 | 0.00 | 0.00 | 99 | 1018.8 |
| 20260903092621 | 22 | 208 | 0.0 | 0.0 | 0.00 | 0.00 | 0.00 | 99 | 1018.8 |
| 20260903091614 | 22 | 216 | 0.0 | 0.0 | 0.00 | 0.00 | 0.00 | 99 | 1018.9 |
| 20260903091109 | 22 | 216 | 0.0 | 0.0 | 0.00 | 0.00 | 0.00 | 99 | 1018.9 |
| 20260903090605 | 22 | 216 | 0.0 | 0.0 | 0.00 | 0.00 | 0.00 | 99 | 1018.7 |
| 20260903090103 | 23 | 215 | 0.0 | 0.0 | 0.00 | 0.00 | 0.00 | 99 | 1018.7 |
| 20260903085602 | 23 | 215 | 0.0 | 0.0 | 0.00 | 0.00 | 0.00 | 99 | 1018.5 |
| 20260903085058 | 23 | 215 | 0.0 | 0.0 | 0.00 | 0.00 | 0.00 | 99 | 1018.6 |
| 20260903084555 | 23 | 216 | 0.0 | 0.0 | 0.00 | 0.00 | 0.00 | 99 | 1018.6 |
| 20260903084051 | 23 | 216 | 0.0 | 0.0 | 0.00 | 0.00 | 0.00 | 99 | 1018.6 |
| 20260903083547 | 23 | 215 | 0.0 | 0.0 | 0.00 | 0.00 | 0.00 | 99 | 1018.8 |
| 20260903083046 | 23 | 216 | 0.0 | 0.0 | 0.00 | 0.00 | 0.00 | 99 | 1018.8 |
| 20260903082540 | 23 | 215 | 0.0 | 0.0 | 0.00 | 0.00 | 0.00 | 99 | 1018.6 |
| 20260903082036 | 23 | 216 | 0.0 | 0.0 | 0.00 | 0.00 | 0.00 | 99 | 1018.7 |
| 20260903081531 | 23 | 215 | 0.0 | 0.0 | 0.00 | 0.00 | 0.00 | 99 | 1018.6 |
| 20260903081027 | 23 | 208 | 0.0 | 0.0 | 0.00 | 0.00 | 0.00 | 99 | 1018.7 |
| 20260903080523 | 23 | 208 | 0.0 | 0.0 | 0.00 | 0.00 | 0.00 | 99 | 1018.4 |
| 20260903080020 | 23 | 208 | 0.0 | 0.0 | 0.00 | 0.00 | 0.00 | 99 | 1018.5 |
| 20260903075514 | 23 | 208 | 0.0 | 0.0 | 0.00 | 0.00 | 0.00 | 99 | 1018.4 |
| 20260903075009 | 23 | 208 | 0.0 | 0.0 | 0.00 | 0.00 | 0.00 | 99 | 1018.4 |
| 20260903074509 | 23 | 208 | 0.0 | 0.0 | 0.00 | 0.00 | 0.00 | 99 | 1018.3 |
| 20260903074003 | 23 | 208 | 0.0 | 0.0 | 0.00 | 0.00 | 0.00 | 99 | 1018.2 |
| 20260903073459 | 23 | 208 | 0.0 | 0.0 | 0.00 | 0.00 | 0.00 | 99 | 1018.5 |
| 20260903072954 | 23 | 208 | 0.0 | 0.0 | 0.00 | 0.00 | 0.00 | 99 | 1018.1 |
| 20260903072450 | 23 | 213 | 0.0 | 0.0 | 0.00 | 0.00 | 0.00 | 99 | 1018.4 |
| 20260903071947 | 23 | 213 | 0.0 | 0.0 | 0.00 | 0.00 | 0.00 | 99 | 1018.1 |
| 20260903071442 | 23 | 208 | 0.0 | 0.0 | 0.00 | 0.00 | 0.00 | 99 | 1018.3 |
| 20260903070938 | 23 | 213 | 0.0 | 0.0 | 0.00 | 0.00 | 0.00 | 99 | 1018.3 |
| 20260903070432 | 23 | 208 | 0.0 | 0.0 | 0.00 | 0.00 | 0.00 | 99 | 1018.3 |
| 20260903065927 | 23 | 213 | 0.0 | 0.0 | 0.00 | 0.00 | 0.00 | 99 | 1018.1 |
| 20260903065427 | 23 | 216 | 0.0 | 0.0 | 0.00 | 0.00 | 0.00 | 99 | 1018.3 |
| 20260903064926 | 23 | 216 | 0.0 | 0.0 | 0.00 | 0.00 | 0.00 | 99 | 1018.1 |
| 20260903064421 | 23 | 216 | 0.0 | 0.0 | 0.00 | 0.00 | 0.00 | 99 | 1018.1 |
| 20260903063917 | 23 | 216 | 0.0 | 0.0 | 0.00 | 0.00 | 0.00 | 99 | 1018.2 |
| 20260903063412 | 23 | 216 | 0.0 | 0.0 | 0.00 | 0.00 | 0.00 | 99 | 1018.1 |
| 20260903062907 | 23 | 216 | 0.0 | 0.0 | 0.00 | 0.00 | 0.00 | 98 | 1018.2 |
| 20260903062402 | 23 | 216 | 0.0 | 0.0 | 0.00 | 0.00 | 0.00 | 98 | 1018.3 |
| 20260903061858 | 23 | 216 | 0.0 | 0.0 | 0.00 | 0.00 | 0.00 | 98 | 1018.2 |
| 20260903061357 | 23 | 216 | 0.0 | 0.0 | 0.00 | 0.00 | 0.00 | 98 | 1018.3 |
| 20260903060853 | 23 | 216 | 0.0 | 0.0 | 0.00 | 0.00 | 0.00 | 97 | 1018.4 |
| 20260903060353 | 23 | 216 | 0.0 | 0.0 | 0.00 | 0.00 | 0.00 | 97 | 1018.5 |
| 20260903055850 | 23 | 216 | 0.0 | 0.0 | 0.00 | 0.00 | 0.00 | 97 | 1018.4 |
| 20260903055348 | 23 | 216 | 0.0 | 0.0 | 0.00 | 0.00 | 0.00 | 97 | 1018.5 |
| 20260903054844 | 23 | 216 | 0.0 | 0.0 | 0.00 | 0.00 | 0.00 | 97 | 1018.6 |
| 20260903054338 | 23 | 216 | 0.0 | 0.0 | 0.00 | 0.00 | 0.00 | 97 | 1018.5 |
| 20260903053835 | 23 | 208 | 0.0 | 0.0 | 0.00 | 0.00 | 0.00 | 97 | 1018.5 |
| 20260903053330 | 23 | 208 | 0.0 | 0.0 | 0.00 | 0.00 | 0.00 | 97 | 1018.4 |
| 20260903052825 | 24 | 213 | 0.0 | 0.0 | 0.00 | 0.00 | 0.00 | 96 | 1018.6 |
| 20260903052321 | 24 | 213 | 0.0 | 0.0 | 0.00 | 0.00 | 0.00 | 96 | 1018.5 |
| 20260903051816 | 24 | 215 | 0.0 | 0.0 | 0.00 | 0.00 | 0.00 | 96 | 1018.4 |
| 20260903051312 | 24 | 215 | 0.0 | 0.0 | 0.00 | 0.00 | 0.00 | 96 | 1018.5 |
| 20260903050807 | 24 | 215 | 0.0 | 0.0 | 0.00 | 0.00 | 0.00 | 96 | 1018.6 |
| 20260903050306 | 24 | 215 | 0.0 | 0.0 | 0.00 | 0.00 | 0.00 | 96 | 1018.3 |
| 20260903045801 | 24 | 215 | 0.0 | 0.0 | 0.00 | 0.00 | 0.00 | 95 | 1018.4 |
| 20260903045257 | 24 | 215 | 0.0 | 0.0 | 0.00 | 0.00 | 0.00 | 95 | 1018.5 |
| 20260903044753 | 24 | 215 | 0.0 | 0.0 | 0.00 | 0.00 | 0.00 | 95 | 1018.4 |
| 20260903044248 | 25 | 215 | 0.0 | 0.0 | 0.00 | 0.00 | 0.00 | 94 | 1018.2 |
| 20260903043745 | 25 | 215 | 0.0 | 0.0 | 0.00 | 0.00 | 0.00 | 94 | 1018.2 |
| 20260903043244 | 25 | 215 | 0.0 | 0.0 | 0.00 | 0.00 | 0.00 | 93 | 1018.2 |
| 20260903042743 | 25 | 215 | 0.0 | 0.0 | 0.00 | 0.00 | 0.00 | 93 | 1018.2 |
| 20260903042239 | 25 | 216 | 0.0 | 0.0 | 0.00 | 0.00 | 0.00 | 92 | 1018.1 |
| 20260903041735 | 25 | 216 | 0.0 | 0.0 | 0.00 | 0.00 | 0.00 | 92 | 1018.2 |
| 20260903041231 | 25 | 215 | 0.0 | 0.0 | 0.00 | 0.00 | 0.00 | 91 | 1018.0 |
| 20260903040725 | 25 | 215 | 0.0 | 0.0 | 0.00 | 0.00 | 0.00 | 90 | 1018.0 |
| 20260903040220 | 25 | 215 | 0.0 | 0.0 | 0.00 | 0.00 | 0.00 | 90 | 1018.3 |
| 20260903035715 | 25 | 215 | 0.0 | 0.0 | 0.00 | 0.00 | 0.00 | 89 | 1018.2 |
| 20260903035206 | 25 | 215 | 0.0 | 0.0 | 0.00 | 0.00 | 0.00 | 89 | 1018.2 |
| 20260903034705 | 26 | 215 | 0.0 | 0.0 | 0.00 | 0.00 | 0.00 | 89 | 1018.1 |
| 20260903034200 | 26 | 215 | 0.0 | 0.0 | 0.00 | 0.00 | 0.00 | 88 | 1018.2 |
| 20260903033656 | 26 | 215 | 0.0 | 0.0 | 0.00 | 0.00 | 0.00 | 87 | 1018.4 |
| 20260903033150 | 26 | 215 | 0.0 | 0.0 | 0.00 | 0.00 | 0.00 | 87 | 1018.3 |
| 20260903032645 | 26 | 215 | 0.0 | 0.0 | 0.00 | 0.00 | 0.00 | 87 | 1018.5 |
| 20260903032140 | 26 | 215 | 0.0 | 0.0 | 0.00 | 0.00 | 0.00 | 88 | 1018.4 |
| 20260903031636 | 26 | 215 | 0.0 | 0.0 | 0.00 | 0.00 | 0.00 | 87 | 1018.4 |
| 20260903031131 | 26 | 215 | 0.0 | 0.0 | 0.00 | 0.00 | 0.00 | 88 | 1018.5 |
| 20260903030626 | 26 | 215 | 0.0 | 0.0 | 0.00 | 0.00 | 0.00 | 88 | 1018.5 |
| 20260903030122 | 26 | 208 | 0.0 | 0.0 | 0.00 | 0.00 | 0.00 | 88 | 1018.6 |
| 20260903025617 | 26 | 215 | 0.0 | 0.0 | 0.00 | 0.00 | 0.00 | 89 | 1018.5 |
| 20260903025113 | 26 | 215 | 0.0 | 0.0 | 0.00 | 0.00 | 0.00 | 89 | 1018.6 |
| 20260903024613 | 26 | 215 | 0.0 | 0.0 | 0.00 | 0.00 | 0.00 | 89 | 1018.5 |
| 20260903024106 | 26 | 215 | 0.0 | 0.0 | 0.00 | 0.00 | 0.00 | 88 | 1018.6 |
| 20260903023602 | 26 | 215 | 0.0 | 0.0 | 0.00 | 0.00 | 0.00 | 88 | 1018.7 |
| 20260903023051 | 26 | 215 | 0.0 | 0.0 | 0.00 | 0.00 | 0.00 | 88 | 1018.7 |
| 20260903022551 | 26 | 209 | 0.0 | 0.0 | 0.00 | 0.00 | 0.00 | 88 | 1018.6 |
| 20260903022050 | 26 | 216 | 0.0 | 0.0 | 0.00 | 0.00 | 0.00 | 87 | 1018.5 |
| 20260903021544 | 26 | 216 | 0.0 | 0.0 | 0.00 | 0.00 | 0.00 | 86 | 1018.4 |
| 20260903021039 | 26 | 216 | 0.0 | 0.0 | 0.00 | 0.00 | 0.00 | 86 | 1018.4 |
| 20260903020535 | 26 | 216 | 0.0 | 0.0 | 0.00 | 0.00 | 0.00 | 86 | 1018.4 |
| 20260903020035 | 26 | 216 | 0.0 | 0.0 | 0.00 | 0.00 | 0.00 | 86 | 1018.4 |
| 20260903015530 | 26 | 216 | 0.0 | 0.0 | 0.00 | 0.00 | 0.00 | 85 | 1018.5 |
| 20260903015026 | 27 | 216 | 0.0 | 0.0 | 0.00 | 0.00 | 0.00 | 85 | 1018.4 |
| 20260903014525 | 27 | 216 | 0.0 | 0.0 | 0.00 | 0.00 | 0.00 | 85 | 1018.5 |
| 20260903014021 | 27 | 216 | 0.0 | 0.0 | 0.00 | 0.00 | 0.00 | 85 | 1018.3 |
| 20260903013520 | 27 | 216 | 0.0 | 0.0 | 0.00 | 0.00 | 0.00 | 84 | 1018.2 |
| 20260903013014 | 27 | 216 | 0.0 | 0.0 | 0.00 | 0.00 | 0.00 | 83 | 1018.2 |
| 20260903012508 | 27 | 216 | 0.0 | 0.0 | 0.00 | 0.00 | 0.00 | 83 | 1018.0 |
| 20260903012007 | 27 | 216 | 0.0 | 0.0 | 0.00 | 0.00 | 0.00 | 83 | 1017.9 |
| 20260903011502 | 27 | 216 | 0.0 | 0.0 | 0.00 | 0.00 | 0.00 | 83 | 1018.2 |
| 20260903010956 | 27 | 216 | 0.0 | 0.0 | 0.00 | 0.00 | 0.00 | 82 | 1018.0 |
| 20260903010451 | 27 | 216 | 0.0 | 0.0 | 0.00 | 0.00 | 0.00 | 83 | 1017.7 |
| 20260903005949 | 27 | 207 | 0.0 | 0.0 | 0.00 | 0.00 | 0.00 | 83 | 1017.6 |
| 20260903005444 | 28 | 206 | 0.0 | 0.0 | 0.00 | 0.00 | 0.00 | 82 | 1017.9 |
| 20260903004941 | 28 | 206 | 0.0 | 0.0 | 0.00 | 0.00 | 0.00 | 80 | 1017.7 |
| 20260903004435 | 28 | 210 | 0.0 | 0.0 | 0.00 | 0.00 | 0.00 | 79 | 1017.8 |
| 20260903003931 | 28 | 206 | 0.0 | 0.0 | 0.00 | 0.00 | 0.00 | 78 | 1017.6 |
| 20260903003431 | 28 | 206 | 0.0 | 0.0 | 0.00 | 0.00 | 0.00 | 78 | 1017.7 |
| 20260903002925 | 28 | 216 | 0.0 | 0.0 | 0.00 | 0.00 | 0.00 | 77 | 1017.6 |
| 20260903002420 | 28 | 216 | 0.0 | 0.0 | 0.00 | 0.00 | 0.00 | 78 | 1017.7 |
| 20260903001915 | 29 | 210 | 0.0 | 0.0 | 0.00 | 0.00 | 0.00 | 77 | 1017.6 |
| 20260903001409 | 29 | 210 | 0.0 | 0.0 | 0.00 | 0.00 | 0.00 | 76 | 1017.7 |
| 20260903000903 | 30 | 216 | 0.0 | 0.0 | 0.00 | 0.00 | 0.00 | 76 | 1017.6 |
| 20260903000359 | 30 | 206 | 0.0 | 0.0 | 0.00 | 0.00 | 0.00 | 76 | 1017.7 |
| 20260902235857 | 30 | 205 | 0.0 | 0.0 | 0.00 | 0.00 | 0.00 | 73 | 1017.8 |
| 20260902235352 | 31 | 205 | 0.0 | 0.0 | 0.00 | 0.00 | 0.00 | 71 | 1017.8 |
| 20260902234851 | 31 | 213 | 0.0 | 0.0 | 0.00 | 0.00 | 0.00 | 71 | 1017.6 |
| 20260902234346 | 31 | 215 | 0.0 | 0.0 | 0.00 | 0.00 | 0.00 | 67 | 1017.7 |
| 20260902233844 | 32 | 213 | 0.0 | 0.0 | 0.00 | 0.00 | 0.00 | 65 | 1017.8 |
| 20260902233340 | 33 | 215 | 0.0 | 0.0 | 0.00 | 0.00 | 0.00 | 65 | 1017.8 |
| 20260902232838 | 34 | 209 | 0.0 | 0.0 | 0.00 | 0.00 | 0.00 | 62 | 1017.9 |
| 20260902232333 | 34 | 209 | 0.0 | 0.0 | 0.00 | 0.00 | 0.00 | 63 | 1017.9 |
| 20260902231833 | 34 | 209 | 0.0 | 0.0 | 0.00 | 0.00 | 0.00 | 61 | 1017.9 |
| 20260902231328 | 34 | 211 | 0.0 | 0.0 | 0.00 | 0.00 | 0.00 | 63 | 1017.6 |
| 20260902230823 | 35 | 211 | 0.0 | 0.0 | 0.00 | 0.00 | 0.00 | 59 | 1017.8 |
| 20260902230322 | 35 | 211 | 0.0 | 0.0 | 0.00 | 0.00 | 0.00 | 58 | 1017.7 |
| 20260902225817 | 35 | 211 | 0.0 | 0.0 | 0.00 | 0.00 | 0.00 | 56 | 1018.0 |
| 20260902225312 | 35 | 211 | 0.0 | 0.0 | 0.00 | 0.00 | 0.00 | 53 | 1017.9 |
| 20260902224810 | 35 | 213 | 0.0 | 1.6 | 0.00 | 0.00 | 0.00 | 51 | 1017.8 |